Starlink 3996

operational
NORAD ID: 52617 Int'l Des: 2022-052 Owner: SPXS Country: US Constellation: starlink
LEOCIRCULAR

About Starlink 3996

Description loading...

Live Position

Loading 3D Globe...

Upcoming Passes

Altitude History

Altitude vs Time

uPlot chart will show altitude changes over time

Two-Line Element Set

1 52617U 22052V 26019.72738963 .00000211 00000-0 31324-4 0 9996
2 52617 53.2179 128.9197 0001185 86.5641 273.5487 15.08843695203596
Epoch: Jan 19, 2026 • Age: 25 hours

Current Status

Altitude 543.9 km
Velocity 7.59 km/s
Sub-Earth Point -14.71°S, 70.57°E
Launch Date May 14, 2022
Age 3.6 years
Type internet

Technical Details

Classification Payload
Mass 297.00 kg
Dry Mass 275.00 kg
Total Mass 297.00 kg
Length 0.20 m
Diameter 2.80 m
Span 9.00 m
Shape Box + pan
Manufacturer SPXS
Bus Type Starlink
Phase Status In Orbit
Owner/State SPXS/US

Large Constellations

Loading constellations...